Terug naar catalogus

COSMOS 2251 DEB

ActiefLEO
NORAD 36058·DEBRIS·🇷🇺 Russia

Gelanceerd Jun 16, 1993 vanaf Plesetsk Cosmodrome

Loading…

Volgende Passages (komende 24 uur)

TLE

VersSource: Space-Track

Epoch: Sep 14, 2026, 06:18 UTC

1 36058U 93036AXV 26257.26310643  .00001686  00000-0  35339-3 0  9997
2 36058  74.0196 227.7418 0046727 290.1367  69.4774 14.59886455701309

Volg COSMOS 2251 DEB in realtime met AllMySat

Download on the App Store